FENGYUN 1C DEB

Satellite information

Favourite Embed

Satellite Type and Status

DEBRISIN ORBIT

Key statistics

Satellite FENGYUN 1C DEB at a glance.

Uptime

9664

Days in orbit

Revolutions

≈ 14.2

Per day

Orbit

SSO

Sun Synchronous Orbit

Inclination

99.1

Latest

Satellite identification and parameters

Extended collection of information and parameters for FENGYUN 1C DEB.

Object identification

Identified? True

Debris? True

Object name: FENGYUN 1C DEB

International designator: 1999-025MX

Object number (NORAD): 30022

Object ID (CCSDS): 30022

Country: PEOPLES REPUBLIC OF CHINA (PRC)

Current information (Y/N): Y

RCS size: SMALL

Orbital parameters

Period: 101.187 minutes

Inclination: 99.0782 deg

SMA: 7193.0 km

Apoapsis: 864.039 km

Periapsis: 765.69 km

RAAN: 143.3805 deg

Eccentricy: 0.00683644

Argument of periapsis: 52.5812 deg

Mean anomaly: 7.0339 deg

Mean motion: 14.23107472 rev/day

Mean motion (dot): 0.00000149 rev/day2

B* drag term: 0.000084670238 1/REarth

Two-line elements (TLE)

Creation date: Oct. 24, 2025, 2:48 a.m.

Reference frame: TEME

Reference center: EARTH

Epoch: Oct. 23, 2025, 7:17 p.m. UTC

TLE line 0: 0 FENGYUN 1C DEB

TLE line 1: 1 30022U 99025MX 25296.80357730 .00000149 00000-0 84670-4 0 9992

TLE line 2: 2 30022 99.0782 143.3805 0068364 52.5812 7.0339 14.23107472974821

Live tracking on map

Real-time ground track for satellite FENGYUN 1C DEB.

In-orbit conjunctions

A list of the most updated potential collisions computed for object FENGYUN 1C DEB.

Target Orbit TCA Probability of collision Miss distance Type
COSMOS 858 LEO 2025-10-07 15:23:23 0.0005154072 194.0 (m) PAYLOAD
CZ-6A DEB SSO 2025-09-14 16:50:21 0.0001821898 209.0 (m) DEBRIS
COSMOS 2251 DEB LEO 2025-03-01 13:20:26 0.000107095 65.0 (m) DEBRIS
CZ-6A DEB LEO 2024-10-10 22:51:40 0.0003585262 546.0 (m) DEBRIS

Associated space launch

Chinese polar orbiting meteorological satellite

FENGYUN 1C DEB was lifted into orbit during the mission ‘Long March 4B | Feng Yun 1C’, on board a Long March 4B space rocket.

The launch took place on May 10, 1999, 1:33 a.m. from Launch Complex 7.

For more information about the launch, click the button.

Launch to space Long March 4B | Feng Yun 1C
Long March 4B | Feng Yun 1C

Agency: N/A

Status: Launch Successful

Launch date: May 10, 1999, 1:33 a.m. UTC

Rocket: Long March 4B

Launch pad: Launch Complex 7

Location: Taiyuan Satellite Launch Center, People's Republic of China

...

Latest news about this satellite

There are no fresh news available about this satellite. Check back as we update our databases every day.


Newsletter sign-up

Weekly statistics, charts and insights to help you stay on top of the space industry.